Total_Precipitation_Accumulation
1.11 1.13 1.03 1.17 1.24 1.24 1.25 1.25 1.18 1.14 1.15 0.99 1.00 1.05 1.05 0.91 0.98 1.03 1.17 1.25 1.58 2.12 2.27 2.00 1.77 1.57 1.45 1.38 1.45 1.55 1.69 1.67 1.70 1.73 1.69 1.89 2.14 2.02 2.14 2.23 2.34 2.67 2.99
0.98 1.17 1.08 1.07 1.15 1.32 1.38 1.34 1.25 1.31 1.30 1.13 1.13 1.20 1.17 1.08 1.08 1.11 1.22 1.14 1.14 1.49 1.92 2.12 2.12 1.96 1.77 1.62 1.53 1.60 1.80 1.70 1.63 1.64 1.69 1.89 2.22 2.10 2.17 2.32 2.29 2.52 2.85
0.89 1.08 1.04 0.96 0.97 1.13 1.31 1.45 1.50 1.49 1.31 1.23 1.21 1.25 1.17 1.15 1.15 1.31 1.30 1.28 1.15 1.06 1.31 1.57 1.84 1.95 1.96 1.90 1.72 1.66 1.81 1.76 1.74 1.71 1.72 1.80 2.15 2.25 2.29 2.37 2.29 2.47 2.63
0.66 0.87 0.95 0.90 0.91 1.07 1.30 1.52 1.67 1.71 1.55 1.50 1.53 1.44 1.27 1.23 1.22 1.33 1.32 1.34 1.40 1.16 1.03 1.02 1.17 1.43 1.65 1.81 1.89 1.86 1.86 1.81 1.75 1.71 1.60 1.59 1.87 2.09 2.24 2.33 2.32 2.47 2.57
0.57 0.78 1.00 1.06 1.05 1.18 1.31 1.35 1.59 1.71 1.78 1.70 1.57 1.46 1.37 1.38 1.35 1.28 1.40 1.38 1.38 1.29 1.12 0.85 0.76 0.85 1.13 1.48 1.73 1.82 1.95 2.02 1.90 1.77 1.52 1.45 1.61 1.91 2.27 2.09 2.14 2.30 2.49
0.71 0.90 1.16 1.25 1.35 1.41 1.49 1.66 1.95 1.99 1.88 1.90 1.73 1.52 1.39 1.40 1.42 1.46 1.46 1.41 1.42 1.29 1.14 0.97 0.83 0.62 0.73 1.05 1.43 1.69 1.84 2.08 2.03 1.98 1.76 1.52 1.52 1.74 2.11 2.07 2.11 2.24 2.40
0.87 1.08 1.30 1.55 1.69 1.59 1.64 1.86 2.13 2.30 2.13 2.00 2.06 1.95 1.78 1.59 1.53 1.48 1.46 1.50 1.49 1.42 1.29 1.23 1.11 0.96 0.82 0.76 0.96 1.33 1.61 1.89 2.00 2.06 2.08 1.83 1.64 1.68 1.81 1.77 1.84 2.15 2.44
0.99 1.03 1.25 1.46 1.55 1.62 1.69 1.82 2.07 2.41 2.27 2.04 2.22 2.59 2.39 2.16 1.72 1.39 1.51 1.56 1.58 1.53 1.41 1.25 1.21 1.15 1.08 1.08 0.75 0.82 1.17 1.53 1.94 2.10 2.10 2.02 1.91 1.71 1.73 1.65 1.62 1.80 2.09
1.29 1.26 1.30 1.44 1.53 1.66 1.77 1.82 1.86 2.17 2.29 2.17 2.16 2.68 2.65 2.45 2.26 1.77 1.44 1.47 1.57 1.65 1.64 1.51 1.36 1.29 1.22 1.32 1.10 0.75 0.84 1.07 1.54 1.95 2.16 2.18 2.06 1.81 1.76 1.71 1.66 1.76 1.90
1.59 1.58 1.59 1.69 1.65 1.62 1.66 1.68 1.67 1.88 2.25 2.34 2.19 2.05 2.03 2.13 2.45 2.18 1.66 1.49 1.50 1.53 1.63 1.53 1.55 1.56 1.55 1.49 1.34 0.98 0.72 0.81 1.19 1.76 2.17 2.22 2.09 1.95 1.83 1.80 1.68 1.68 1.81
2.15 2.08 2.04 1.91 1.72 1.64 1.68 1.73 1.72 1.81 1.94 2.11 2.09 1.96 1.94 1.90 1.79 1.98 1.94 1.70 1.51 1.41 1.50 1.56 1.60 1.61 1.69 1.64 1.53 1.20 0.85 0.67 0.82 1.32 1.82 2.03 2.08 1.99 1.92 1.86 1.73 1.63 1.53
2.13 2.06 1.94 1.74 1.57 1.50 1.57 1.73 1.76 1.82 1.81 1.89 1.86 1.77 1.77 1.75 1.68 1.84 1.80 1.79 1.76 1.43 1.31 1.39 1.46 1.51 1.51 1.55 1.42 1.49 1.17 0.84 0.71 0.89 1.22 1.57 1.92 2.11 2.08 2.14 1.97 1.80 1.63
1.53 1.54 1.56 1.55 1.46 1.39 1.48 1.71 1.83 1.86 1.83 1.81 1.76 1.69 1.72 1.59 1.65 1.91 1.96 1.86 1.77 1.47 1.30 1.21 1.27 1.34 1.29 1.40 1.47 1.61 1.35 1.08 0.85 0.78 0.88 1.08 1.35 1.72 2.10 2.34 2.47 2.32 2.14
1.32 1.33 1.40 1.43 1.41 1.40 1.43 1.56 1.72 1.84 1.82 1.74 1.70 1.81 1.78 1.58 1.66 1.71 1.75 1.93 1.82 1.60 1.41 1.15 1.10 1.08 1.14 1.19 1.35 1.55 1.12 1.05 0.91 0.79 0.73 0.79 0.98 1.19 1.54 1.96 2.37 2.46 2.35
1.01 1.11 1.22 1.29 1.26 1.26 1.31 1.44 1.61 1.66 1.74 1.77 1.78 1.80 1.81 1.72 1.72 1.73 1.82 1.89 1.92 1.72 1.48 1.24 1.10 0.98 1.04 1.05 1.27 1.19 1.01 1.03 0.97 0.86 0.79 0.74 0.85 1.01 1.23 1.35 1.46 1.61 1.74
0.90 0.96 0.94 0.91 0.89 0.94 0.97 1.09 1.29 1.38 1.43 1.52 1.53 1.59 1.64 1.64 1.70 1.70 1.76 1.83 1.82 1.75 1.59 1.35 1.18 1.10 1.14 1.03 1.14 1.04 1.09 1.24 1.05 0.90 0.83 0.78 0.80 0.89 0.97 1.01 1.01 0.97 0.98
0.59 0.66 0.61 0.59 0.65 0.70 0.67 0.76 0.87 0.97 1.09 1.20 1.22 1.26 1.33 1.35 1.46 1.51 1.62 1.69 1.73 1.69 1.46 1.30 1.18 1.20 1.21 1.19 1.15 1.07 1.13 1.17 1.06 0.96 0.82 0.74 0.77 0.83 0.89 0.93 0.92 0.86 0.81
0.30 0.36 0.38 0.38 0.46 0.59 0.59 0.65 0.70 0.72 0.83 0.95 1.00 1.06 1.08 1.10 1.22 1.31 1.38 1.47 1.60 1.64 1.53 1.37 1.26 1.20 1.10 1.11 1.26 1.30 1.28 1.20 1.20 1.25 1.13 0.96 0.89 0.86 0.83 0.89 0.94 0.89 0.83
0.24 0.27 0.30 0.32 0.35 0.45 0.56 0.61 0.63 0.61 0.62 0.65 0.71 0.76 0.82 0.89 1.06 1.14 1.17 1.27 1.42 1.47 1.55 1.44 1.37 1.30 1.15 1.08 1.24 1.27 1.33 1.49 1.41 1.48 1.59 1.39 1.13 0.98 0.86 0.90 0.95 0.93 0.85
0.23 0.22 0.20 0.21 0.28 0.39 0.48 0.56 0.60 0.58 0.56 0.58 0.61 0.62 0.65 0.69 0.79 0.91 1.00 1.19 1.36 1.49 1.53 1.47 1.45 1.41 1.34 1.24 1.31 1.40 1.46 1.56 1.60 1.43 1.44 1.42 1.36 1.24 1.05 0.93 0.98 1.02 1.00
0.19 0.14 0.12 0.14 0.21 0.27 0.32 0.46 0.50 0.51 0.55 0.54 0.56 0.60 0.61 0.60 0.62 0.66 0.65 0.85 1.07 1.31 1.40 1.45 1.47 1.50 1.45 1.41 1.36 1.49 1.56 1.68 1.77 1.75 1.61 1.43 1.40 1.25 1.12 1.04 1.01 1.04 1.09
0.18 0.14 0.11 0.12 0.13 0.14 0.22 0.28 0.36 0.46 0.52 0.58 0.59 0.62 0.59 0.55 0.59 0.59 0.58 0.60 0.72 0.89 1.08 1.19 1.27 1.33 1.39 1.49 1.61 1.62 1.59 1.65 1.71 1.72 1.59 1.60 1.53 1.41 1.24 1.07 1.07 1.09 1.12
0.14 0.12 0.10 0.12 0.12 0.11 0.11 0.13 0.25 0.41 0.53 0.57 0.55 0.68 0.73 0.67 0.65 0.69 0.71 0.64 0.59 0.60 0.76 0.97 1.10 1.15 1.22 1.32 1.55 1.60 1.60 1.64 1.56 1.59 1.45 1.48 1.44 1.31 1.23 1.19 1.20 1.12 1.13
0.11 0.12 0.13 0.14 0.11 0.08 0.08 0.09 0.15 0.30 0.45 0.50 0.50 0.63 0.87 0.90 0.79 0.73 0.78 0.87 0.79 0.64 0.64 0.70 0.87 1.00 1.05 1.21 1.53 1.75 1.70 1.50 1.45 1.52 1.41 1.42 1.35 1.23 1.16 1.14 1.19 1.10 1.08
0.14 0.12 0.11 0.13 0.11 0.09 0.09 0.09 0.13 0.24 0.35 0.40 0.43 0.55 0.71 0.86 0.79 0.73 0.73 0.81 0.85 0.75 0.68 0.70 0.67 0.76 0.89 1.07 1.32 1.59 1.70 1.66 1.49 1.45 1.32 1.25 1.26 1.25 1.27 1.22 1.16 1.15 1.07
0.17 0.15 0.13 0.11 0.10 0.08 0.09 0.10 0.11 0.17 0.23 0.23 0.29 0.45 0.61 0.59 0.55 0.61 0.72 0.83 0.92 0.77 0.67 0.76 0.75 0.78 0.81 1.00 1.32 1.54 1.67 1.65 1.53 1.48 1.37 1.28 1.28 1.29 1.46 1.41 1.24 1.18 1.12